Regional Weather Roundup
Issued by NWS

Home | Current Version | Previous Version | Graphics & Text | Print | Product List | Glossary On
Versions: 1 2 3 4 5 6 7 8 9 10 11 12 13 14 15 16 17 18 19 20 21 22 23 24 25 26 27 28 29 30 31 32 33 34 35 36 37 38 39 40 41 42 43 44 45 46 47 48 49 50
940
ASUS43 KLOT 240303
RWRIL

ILLINOIS REGIONAL WEATHER ROUNDUP
NATIONAL WEATHER SERVICE CHICAGO/ROMEOVILLE IL
900 PM CST MON JAN 23 2017

NOTE: "FAIR" INDICATES FEW OR NO CLOUDS BELOW 12,000 FEET WITH NO
SIGNIFICANT WEATHER AND/OR OBSTRUCTIONS TO VISIBILITY.

* THESE STATIONS ARE NOT UNDER NWS QUALITY CONTROL. THEY ALSO MAY NOT
  REPORT WEATHER SUCH AS PRECIPITATION OR FOG.

ILZ001-002-007-009-015-016-024-240400-
NORTHWEST ILLINOIS

CITY           SKY/WX    TMP DP  RH WIND       PRES   REMARKS
MOLINE         CLOUDY    36  31  82 W7        29.85R WCI  30
STERLING*      CLOUDY    37  35  92 CALM      29.84F
SAVANNA*       CLOUDY    35  34  94 CALM      29.84S
$$

ILZ003-004-008-010-011-017-018-240400-
NORTH CENTRAL ILLINOIS

CITY           SKY/WX    TMP DP  RH WIND       PRES   REMARKS
ROCKFORD       CLOUDY    38  33  82 NW6       29.84S WCI  33
FREEPORT*      CLOUDY    36  33  88 NW5       29.85R WCI  32
ROCHELLE*      CLOUDY    36  34  92 W3        29.84R
DE KALB*       CLOUDY    38  36  93 NW5       29.82S WCI  34
PERU*          CLOUDY    37  33  88 NW9       29.83F WCI  30
$$

ILZ005-006-012>014-019>023-240400-
NORTHEAST ILLINOIS

CITY           SKY/WX    TMP DP  RH WIND       PRES   REMARKS
CHICAGO-OHARE  CLOUDY    37  33  85 N6        29.80R WCI  32
CHICAGO-MIDWAY CLOUDY    41  33  73 NW12      29.80S
AURORA         CLOUDY    38  36  92 CALM      29.82S
LANSING*       CLOUDY    40  37  87 N3        29.80F
JOLIET*        CLOUDY    41  37  85 CALM      29.82S
WAUKEGAN       CLOUDY    38  35  89 VRB5      29.80S WCI  34
DUPAGE AIRPORT CLOUDY    39  34  82 W7        29.81R WCI  34
KANKAKEE*      CLOUDY    40  34  78 NW6       29.82S
WHEELING       MOCLDY    36  33  89 NW5       29.82R WCI  32
MORRIS*        CLOUDY    38  37  93 CALM      29.81S
ROMEOVILLE*    CLOUDY    39  37  91 NW5       29.82R
NORTHERLY ISL    N/A     41  34  76 W7          N/A
$$

LMZ740>746-240400-
SOUTHERN LAKE MICHIGAN

STATION/POSITION SKY/WX   TEMP    WIND        PRES    VSBY  WAVE
                          AIR SEA DIR/SP/G                  HT/PER
                          (F)     (DEG/KT/KT) (MB)    (MI)  (FT/S)
HARRISON CRIB              40     320/ 10/ 11   N/A
BURNHAM HARBOR             40     300/  5/  9   N/A
CALUMET HARBOR             38     330/  4/  6 1008.8R
BURNS HARBOR               37     360/  7/  8 1010.2R
MICHIGAN CITY              37     320/ 14/ 15   N/A
$$

ILZ025>027-034>036-040-047-049-050-058-095>099-240400-
WEST-CENTRAL ILLINOIS

CITY           SKY/WX    TMP DP  RH WIND       PRES   REMARKS
QUINCY         CLOUDY    35  31  85 W5        29.87R WCI  31
GALESBURG*     CLOUDY    33  32  94 W8        29.86R WCI  27
MACOMB*        CLOUDY    36  33  90 NW6       29.88S WCI  31
JACKSONVILLE*  CLOUDY    37  32  83 NW5       29.85S WCI  33
PITTSFIELD*    CLOUDY    37  32  85 NW5       29.88R WCI  33
$$

ILZ028>032-037-038-041>044-048-051>054-059>061-240400-
CENTRAL ILLINOIS

CITY           SKY/WX    TMP DP  RH WIND       PRES   REMARKS
BLOOMINGTON    CLOUDY    38  36  92 N8        29.83S WCI  32
DECATUR        CLOUDY    41  35  79 N9        29.84R
PEORIA         CLOUDY    39  35  86 NW5       29.85S
LACON*         CLOUDY    37  35  90 CALM      29.84S
LINCOLN*       CLOUDY    40  37  87 NW3       29.84S
SPRINGFIELD    CLOUDY    40  35  83 NW7       29.85S
TAYLORVILLE    CLOUDY    39  34  84 NW6       29.85S WCI  34
$$

ILZ033-039-045-046-055>057-062-063-240400-
EAST-CENTRAL ILLINOIS

CITY           SKY/WX    TMP DP  RH WIND       PRES   REMARKS
CHAMPAIGN      CLOUDY    39  35  86 NW6       29.82S WCI  35
RANTOUL*       CLOUDY    40  38  92 NW7       29.82S
MATTOON        CLOUDY    39  35  86 NW12      29.83R WCI  32
PARIS*         CLOUDY    39  36  90 NW5       29.83S
$$

ILZ079-100>102-240400-
SOUTHWEST ILLINOIS

CITY           SKY/WX    TMP DP  RH WIND       PRES   REMARKS
ALTON          CLOUDY    39  32  75 NW6       29.86S WCI  35
BELLEVILLE     CLOUDY    41  33  74 NW8       29.85S
CAHOKIA*       CLOUDY    42  32  67 N8        29.86S
SPARTA*        CLOUDY    40  32  75 CALM      29.87S
$$

ILZ064>066-069>071-074>076-080>082-084>086-088>090-092>094-240400-
SOUTH-CENTRAL ILLINOIS

CITY           SKY/WX    TMP DP  RH WIND       PRES   REMARKS
CARBONDALE     CLOUDY    41  35  79 N7        29.86S
CAIRO*         CLOUDY    42  36  80 N6        29.87R
EFFINGHAM*     CLOUDY    41  37  85 NW10      29.85R
MARION         CLOUDY    43  36  75 NW5       29.87R
MT. VERNON     CLOUDY    41  35  79 CALM      29.85S
CENTRALIA*     CLOUDY    41  36  83 N10       29.85R
SALEM*         CLOUDY    41  35  78 N7        29.85S
METROPOLIS*    CLOUDY    42  36  78 CALM      29.87R
$$

ILZ067-068-072-073-078-083-087-091-240400-
SOUTHEAST ILLINOIS

CITY           SKY/WX    TMP DP  RH WIND       PRES   REMARKS
LAWRENCEVILLE  CLOUDY    40  37  89 NW14      29.83R
FLORA*         CLOUDY    42  36  77 NW7       29.85R
FAIRFIELD*     CLOUDY    42  35  77 NW3       29.84S
HARRISBURG*    CLOUDY    41  36  80 NW9       29.86S
ROBINSON*      CLOUDY    39  35  85 N9        29.84R WCI  33
CARMI*         CLOUDY    42  36  79 NW8       29.84S
$$

ABBREVIATIONS USED IN REMARKS
   TC - TEMPERATURE IN CELSIUS
  WCI - WIND CHILL INDEX
   HX - HEAT INDEX
  VSB - VISIBILITY
$$





USA.gov is the U.S. government's official web portal to all federal, state and local government web resources and services.